Location: Kitchener-Waterloo
(43.4500°N, 80.5000°W)
Time: 00:20:35
(UTC-04:00)

Amateur Radio Satellites - All Passes

Search period start: 04 August 2015 23:50
Search period end: 05 August 2015 23:50
Location: Kitchener-Waterloo, 43.4500°N, 80.5000°W

Satellite Date Start Highest point End Downlink Frequencies (MHz)
Time Altitude Azimuth
Cosmos 2491 04 Aug 23:51:04 23:59:49 81° 80° (E) 00:08:34 435.465 / 435.565
ZACube-1 04 Aug 23:51:23 23:53:08 12° 273° (W) 23:54:40 437.345
HUMSAT D 05 Aug 00:02:12 00:05:20 20° 268° (W) 00:08:25 437.325/437.525
ESTCUBE 1 05 Aug 00:11:47 00:16:15 56° 260° (W) 00:20:43 437.505/2401.250
YUBILEINY 05 Aug 00:12:06 00:20:13 47° 89° (E) 00:28:31 435.215
UKube-1 05 Aug 00:16:21 00:19:47 22° 266° (W) 00:23:09 .
50 SAT 05 Aug 00:19:11 00:22:25 24° 266° (W) 00:25:36 437.505
ISS 05 Aug 00:21:12 00:23:44 20° 8° (N) 00:26:15 145.825
BUGSAT 1 05 Aug 00:22:04 00:25:41 30° 96° (E) 00:29:21 437.445
TIGRISAT 05 Aug 00:22:33 00:27:14 65° 286° (WNW) 00:31:54 435.000
POLYITAN 1 05 Aug 00:24:32 00:28:46 55° 101° (E) 00:32:59 437.675
ANTELSAT 05 Aug 00:26:13 00:30:52 58° 286° (WNW) 00:35:29 437.575/2403.000
M-CUBED/EXP-1 PRIME 05 Aug 00:29:08 00:33:03 25° 300° (WNW) 00:36:47 437.505
AIST 1 05 Aug 00:30:27 00:33:40 20° 272° (W) 00:36:46
O/OREOS (USA 219) 05 Aug 00:31:39 00:34:26 17° 101° (E) 00:37:23 437.305
POPSAT HIP 1 05 Aug 00:39:50 00:44:07 80° 103° (ESE) 00:48:24 437.405
SWISSCUBE 05 Aug 00:42:25 00:44:05 12° 60° (ENE) 00:45:58 437.505
BEESAT 2 05 Aug 00:43:44 00:47:14 26° 315° (NW) 00:50:45 435.950
CUBEBUG 1 05 Aug 00:44:02 00:47:53 30° 264° (W) 00:51:42 437.445
AISAT 05 Aug 00:44:02 00:47:09 18° 269° (W) 00:50:07 437.250
QB50P2 05 Aug 00:48:37 00:52:55 79° 285° (WNW) 00:57:12 145.880/145.840
AUBIESAT-1 05 Aug 00:55:01 00:58:08 17° 303° (WNW) 01:01:03 437.475
TISAT 1 05 Aug 00:58:13 01:02:23 74° 74° (ENE) 01:06:34 437.305
SPROUT 05 Aug 01:03:08 01:07:21 61° 260° (W) 01:11:36 437.525
ITUPSAT 1 05 Aug 01:03:56 01:06:58 17° 63° (ENE) 01:10:10 437.325
AIST 2 05 Aug 01:05:51 01:10:03 59° 307° (NW) 01:14:17 435.215
DUCHIFAT 1 05 Aug 01:08:26 01:12:35 51° 287° (WNW) 01:16:42 145.980
NANOSAT C BR1 05 Aug 01:14:33 01:18:36 43° 289° (WNW) 01:22:38 145.865
QB50P1 05 Aug 01:15:06 01:19:09 42° 288° (WNW) 01:23:10 145.935-145.965
UNISAT 6 05 Aug 01:18:36 01:22:01 20° 295° (WNW) 01:25:19 437.425
BEESAT 3 05 Aug 01:19:38 01:21:34 13° 325° (NW) 01:23:23 437.485
Cosmos 2491 05 Aug 01:49:28 01:55:48 22° 280° (W) 02:01:44 435.465 / 435.565
RS-15 05 Aug 01:53:15 02:02:15 26° 352° (N) 02:11:29 29.354- 29.394
BEESAT 05 Aug 01:55:26 02:00:04 52° 72° (ENE) 02:04:45 436.000
ISS 05 Aug 01:57:29 02:00:42 51° 28° (NNE) 02:03:53 145.825
BUGSAT 1 05 Aug 01:57:44 02:01:02 23° 292° (WNW) 02:04:18 437.445
POLYITAN 1 05 Aug 02:01:42 02:04:16 15° 296° (WNW) 02:06:42 437.675
Oscar 19 05 Aug 02:03:10 02:07:24 25° 93° (E) 02:11:44 437.125/150
YUBILEINY 05 Aug 02:09:06 02:17:14 41° 290° (WNW) 02:25:21 435.215
O/OREOS (USA 219) 05 Aug 02:09:07 02:13:29 50° 297° (WNW) 02:17:54 437.305
SWISSCUBE 05 Aug 02:16:28 02:21:17 90° 2° (N) 02:26:08 437.505
Cosmos 2504 05 Aug 02:16:57 02:23:13 34° 85° (E) 02:30:03 435.465 / 435.565
POPSAT HIP 1 05 Aug 02:18:08 02:19:25 11° 298° (WNW) 02:20:30 437.405
ITUPSAT 1 05 Aug 02:39:41 02:44:26 60° 259° (W) 02:49:13 437.325
STARS 05 Aug 02:40:02 02:42:36 16° 64° (ENE) 02:45:20 437.465
AIST 2 05 Aug 02:48:12 02:49:34 11° 328° (NNW) 02:50:47 435.215
KKS-1 05 Aug 03:15:39 03:19:59 58° 73° (ENE) 03:24:21 437.445
ITAMSAT 1 05 Aug 03:33:12 03:38:10 45° 99° (E) 03:43:07 435.822/435.867
ISS 05 Aug 03:34:19 03:36:56 22° 224° (SW) 03:39:31 145.825
BEESAT 05 Aug 03:34:55 03:38:16 18° 269° (W) 03:41:28 436.000
Gurwin Techsat 1B 05 Aug 03:36:00 03:41:14 56° 100° (E) 03:46:27 435.225
Oscar 19 05 Aug 03:42:04 03:46:56 42° 291° (WNW) 03:51:47 437.125/150
AO-7 05 Aug 03:57:53 04:03:14 19° 88° (E) 04:08:57 29.400- 29.500
JAS-2 05 Aug 04:04:21 04:11:54 48° 96° (E) 04:19:15 435.910
CUSAT 1 05 Aug 04:04:57 04:07:08 23° 95° (E) 04:09:19 437.405
Cosmos 2504 05 Aug 04:08:14 04:15:12 47° 287° (WNW) 04:22:41 435.465 / 435.565
RS-15 05 Aug 04:09:15 04:19:20 34° 26° (NNE) 04:29:58 29.354- 29.394
HORYU 2 05 Aug 04:13:54 04:16:24 15° 89° (E) 04:19:04 437.375
STARS 05 Aug 04:14:22 04:18:39 55° 259° (W) 04:22:58 437.465
DANDE 05 Aug 04:16:07 04:18:15 19° 96° (E) 04:20:17 436.750
MOZHAYETS 4 05 Aug 04:37:19 04:41:48 52° 73° (ENE) 04:46:21
KKS-1 05 Aug 04:54:38 04:57:04 14° 271° (W) 04:59:18 437.445
GONETS M04 05 Aug 04:57:11 05:02:52 21° 80° (E) 05:08:57
CUBESAT XI-V 05 Aug 05:10:04 05:11:21 11° 61° (ENE) 05:12:52 437.345
ITAMSAT 1 05 Aug 05:13:15 05:17:26 25° 296° (WNW) 05:21:30 435.822/435.867
Gurwin Techsat 1B 05 Aug 05:16:52 05:20:51 21° 297° (WNW) 05:24:42 435.225
STRAND 1 05 Aug 05:48:21 05:49:02 10° 57° (ENE) 05:50:01 437.568
AO-7 05 Aug 05:48:53 05:57:17 89° 108° (ESE) 06:05:36 29.400- 29.500
HORYU 2 05 Aug 05:49:00 05:53:27 56° 288° (WNW) 05:57:51 437.375
JAS-2 05 Aug 05:49:32 05:56:48 41° 295° (WNW) 06:03:49 435.910
MOZHAYETS 4 05 Aug 06:16:15 06:19:23 17° 270° (W) 06:22:22
BEESAT 3 05 Aug 06:19:43 06:21:46 14° 36° (NE) 06:23:55 437.485
Cubesat XI-IV 05 Aug 06:20:05 06:21:54 12° 86° (E) 06:24:02 437.490
RS-15 05 Aug 06:22:07 06:33:55 81° 54° (NE) 06:46:12 29.354- 29.394
CUBESAT XI-V 05 Aug 06:43:28 06:48:09 90° 161° (SSE) 06:52:51 437.345
GONETS M04 05 Aug 06:50:01 06:58:45 84° 280° (W) 07:07:30
CUTE-I 05 Aug 07:12:19 07:17:12 37° 96° (E) 07:22:06 437.470
STRAND 1 05 Aug 07:22:19 07:27:26 71° 73° (ENE) 07:32:34 437.568
BEESAT 2 05 Aug 07:23:10 07:26:54 33° 47° (NE) 07:30:36 435.950
Cosmos 2499 05 Aug 07:23:41 07:30:31 41° 87° (E) 07:38:00 435.465 / 435.565
PRISM 05 Aug 07:29:49 07:33:58 68° 74° (ENE) 07:38:07 437.425
AO-7 05 Aug 07:42:53 07:49:10 24° 308° (NW) 07:55:11 29.400- 29.500
AIST 2 05 Aug 07:48:46 07:51:43 18° 39° (NE) 07:54:42 435.215
BEESAT 3 05 Aug 07:56:17 08:00:21 89° 51° (NE) 08:04:21 437.485
Cubesat XI-IV 05 Aug 07:57:29 08:02:51 88° 289° (WNW) 08:08:11 437.490
HO-68 05 Aug 08:31:00 08:34:46 15° 86° (E) 08:38:58 435.675
PCSat 05 Aug 08:33:59 08:39:02 42° 113° (ESE) 08:44:10 145.827
RS-15 05 Aug 08:35:35 08:45:29 31° 254° (WSW) 08:55:11 29.354- 29.394
AUBIESAT-1 05 Aug 08:35:41 08:37:32 13° 54° (NE) 08:39:36 437.475
GOMX 1 05 Aug 08:42:27 08:46:16 25° 94° (E) 08:50:22 467.674
GONETS M04 05 Aug 08:51:14 08:57:13 19° 303° (WNW) 09:02:47
CUTE-I 05 Aug 08:52:34 08:57:12 31° 294° (WNW) 09:01:45 437.470
BRITE-PL 05 Aug 08:54:19 08:58:43 52° 99° (E) 09:03:28 437.365/2234.400
BEESAT 2 05 Aug 09:01:26 09:04:50 25° 245° (WSW) 09:08:08 435.950
SO-50 05 Aug 09:03:31 09:08:13 65° 121° (ESE) 09:13:05 436.795
STRAND 1 05 Aug 09:04:20 09:07:15 15° 272° (W) 09:09:56 437.568
PRISM 05 Aug 09:08:47 09:09:56 11° 272° (W) 09:10:49 437.425
Cosmos 2499 05 Aug 09:16:32 09:23:41 42° 289° (WNW) 09:31:21 435.465 / 435.565
CINEMA 3 05 Aug 09:22:51 09:26:10 19° 91° (E) 09:29:42 145.822/145.860
AIST 2 05 Aug 09:26:32 09:30:42 62° 240° (WSW) 09:34:46 435.215
COMPASS 1 05 Aug 09:29:46 09:32:58 21° 92° (E) 09:36:14 437.405
Cubesat XI-IV 05 Aug 09:39:38 09:42:15 13° 302° (WNW) 09:44:37 437.490
M-CUBED/EXP-1 PRIME 05 Aug 09:42:33 09:46:42 62° 68° (ENE) 09:51:14 437.505
DOVE 4 05 Aug 09:45:57 09:50:38 67° 100° (E) 09:55:38 437.250
TIGRISAT 05 Aug 09:48:05 09:50:23 14° 62° (ENE) 09:52:53 435.000
ANTELSAT 05 Aug 09:51:31 09:54:10 16° 63° (ENE) 09:57:02 437.575/2403.000
SEEDS 05 Aug 09:51:49 09:55:57 46° 98° (E) 10:00:02 437.485
ZACube-1 05 Aug 10:01:12 10:03:01 12° 87° (E) 10:05:05 437.345
CUTE 1.7 + AOD 2 05 Aug 10:02:05 10:06:25 77° 102° (ESE) 10:10:40 437.475
AAUSAT CUBESAT 2 05 Aug 10:06:32 10:10:34 45° 98° (E) 10:14:35 437.432
AUBIESAT-1 05 Aug 10:07:20 10:11:33 84° 252° (WSW) 10:16:07 437.475
CANX-2 05 Aug 10:11:14 10:15:33 77° 284° (WNW) 10:19:49 2200.000
HO-68 05 Aug 10:16:27 10:23:41 85° 106° (ESE) 10:30:54 435.675
PCSat 05 Aug 10:17:43 10:22:36 32° 312° (NW) 10:27:27 145.827
FUNcube-1 05 Aug 10:19:39 10:22:52 19° 91° (E) 10:26:12 145.935
GOMX 1 05 Aug 10:20:14 10:24:29 37° 289° (WNW) 10:28:58 467.674
YUBILEINY 05 Aug 10:20:52 10:27:43 25° 62° (ENE) 10:34:50 435.215
Oscar 11 05 Aug 10:23:55 10:27:48 31° 95° (E) 10:31:43 145.826/435.025
DUCHIFAT 1 05 Aug 10:28:17 10:30:18 14° 63° (ENE) 10:32:30 145.980
UWE-3 05 Aug 10:33:41 10:37:56 35° 96° (E) 10:42:15 435.000/436.395/437.385
NANOSAT C BR1 05 Aug 10:33:56 10:36:27 16° 65° (ENE) 10:39:06 145.865
BRITE-PL 05 Aug 10:33:58 10:37:00 18° 294° (WNW) 10:40:01 437.365/2234.400
QB50P1 05 Aug 10:34:34 10:37:10 17° 65° (ENE) 10:39:54 145.935-145.965
O/OREOS (USA 219) 05 Aug 10:38:38 10:42:58 41° 60° (ENE) 10:47:20 437.305
UNISAT 6 05 Aug 10:41:02 10:45:16 49° 72° (ENE) 10:49:39 437.425
SO-50 05 Aug 10:45:22 10:49:14 23° 321° (NW) 10:53:06 436.795
DELFI C3 05 Aug 10:55:12 10:59:07 45° 99° (E) 11:03:01 145.870
CUBEBUG 2 05 Aug 10:58:44 11:03:27 81° 101° (ESE) 11:08:13 437.445
CINEMA 3 05 Aug 10:59:01 11:03:39 51° 287° (WNW) 11:08:24 145.822/145.860
Cosmos 2491 05 Aug 11:00:49 11:06:02 19° 78° (ENE) 11:11:43 435.465 / 435.565
DX 1 05 Aug 11:02:26 11:04:34 14° 89° (E) 11:06:55 434.975-435.025
COMPASS 1 05 Aug 11:04:53 11:08:45 34° 289° (WNW) 11:12:32 437.405
BUGSAT 1 05 Aug 11:13:32 11:16:48 25° 68° (ENE) 11:20:09 437.445
POLYITAN 1 05 Aug 11:18:30 11:22:32 47° 72° (ENE) 11:26:37 437.675
M-CUBED/EXP-1 PRIME 05 Aug 11:19:48 11:22:03 14° 268° (W) 11:24:11 437.505
TIGRISAT 05 Aug 11:22:18 11:26:38 64° 259° (W) 11:31:07 435.000
AIST 1 05 Aug 11:23:47 11:26:48 19° 88° (E) 11:29:57
DOVE 4 05 Aug 11:25:09 11:28:01 16° 295° (WNW) 11:30:48 437.250
ANTELSAT 05 Aug 11:26:12 11:30:31 56° 261° (W) 11:34:59 437.575/2403.000
SEEDS 05 Aug 11:28:33 11:31:24 17° 295° (WNW) 11:34:07 437.485
POPSAT HIP 1 05 Aug 11:33:28 11:37:38 68° 75° (ENE) 11:41:50 437.405
VELOX 1 05 Aug 11:33:48 11:36:48 18° 91° (E) 11:39:56 145.980
ZACube-1 05 Aug 11:35:21 11:39:55 71° 285° (WNW) 11:44:30 437.345
CUTE 1.7 + AOD 2 05 Aug 11:40:13 11:41:45 12° 298° (WNW) 11:43:06 437.475
QB50P2 05 Aug 11:42:20 11:46:33 89° 77° (ENE) 11:50:48 145.880/145.840
AAUSAT CUBESAT 2 05 Aug 11:43:01 11:45:51 17° 294° (WNW) 11:48:33 437.432
HUMSAT D 05 Aug 11:43:31 11:47:49 60° 100° (E) 11:52:06 437.325/437.525
50 SAT 05 Aug 11:52:38 11:56:15 33° 96° (E) 11:59:53 437.505
FUNcube-1 05 Aug 11:55:02 11:59:25 45° 288° (WNW) 12:03:47 145.935
Oscar 11 05 Aug 12:00:16 12:03:52 25° 292° (WNW) 12:07:24 145.826/435.025
UKube-1 05 Aug 12:01:26 12:05:41 53° 100° (E) 12:09:55 .
DUCHIFAT 1 05 Aug 12:01:32 12:05:40 60° 259° (W) 12:09:49 145.980
Cosmos 2504 05 Aug 12:02:12 12:05:51 14° 54° (NE) 12:10:06 435.465 / 435.565
ESTCUBE 1 05 Aug 12:03:37 12:07:25 27° 94° (E) 12:11:17 437.505/2401.250
HO-68 05 Aug 12:05:26 12:10:40 22° 304° (NW) 12:15:40 435.675
NANOSAT C BR1 05 Aug 12:07:51 12:11:56 49° 261° (W) 12:16:02 145.865
QB50P1 05 Aug 12:08:38 12:12:41 47° 261° (W) 12:16:47 145.935-145.965
UWE-3 05 Aug 12:10:27 12:14:19 26° 292° (WNW) 12:18:09 435.000/436.395/437.385
YUBILEINY 05 Aug 12:16:48 12:25:39 77° 265° (W) 12:34:27 435.215
O/OREOS (USA 219) 05 Aug 12:18:37 12:22:10 22° 257° (WSW) 12:25:36 437.305
UNISAT 6 05 Aug 12:19:30 12:22:24 17° 270° (W) 12:25:13 437.425
CUBEBUG 1 05 Aug 12:31:02 12:35:11 43° 98° (E) 12:39:20 437.445
DELFI C3 05 Aug 12:31:18 12:33:51 16° 295° (WNW) 12:36:16 145.870
AISAT 05 Aug 12:31:39 12:36:05 78° 103° (ESE) 12:40:31 437.250
DX 1 05 Aug 12:36:59 12:41:15 57° 287° (WNW) 12:45:31 434.975-435.025
CUBEBUG 2 05 Aug 12:37:22 12:39:35 13° 298° (WNW) 12:41:36 437.445
TISAT 1 05 Aug 12:44:10 12:44:53 10° 87° (E) 12:45:51 437.305
BUGSAT 1 05 Aug 12:48:44 12:52:13 27° 265° (W) 12:55:39 437.445
SPROUT 05 Aug 12:49:09 12:52:24 21° 92° (E) 12:55:45 437.525
Cosmos 2491 05 Aug 12:53:01 13:01:49 89° 94° (E) 13:10:36 435.465 / 435.565
POLYITAN 1 05 Aug 12:56:09 12:58:46 15° 270° (W) 13:01:14 437.675
AIST 1 05 Aug 13:00:11 13:04:14 37° 284° (WNW) 13:08:14
VELOX 1 05 Aug 13:09:24 13:13:36 44° 289° (WNW) 13:17:47 145.980
POPSAT HIP 1 05 Aug 13:12:58 13:14:04 11° 273° (W) 13:14:55 437.405
ITAMSAT 1 05 Aug 13:17:04 13:18:39 12° 57° (ENE) 13:20:31 435.822/435.867
HUMSAT D 05 Aug 13:20:40 13:23:07 15° 296° (WNW) 13:25:23 437.325/437.525
Oscar 19 05 Aug 13:21:01 13:25:46 41° 69° (ENE) 13:30:36 437.125/150
Gurwin Techsat 1B 05 Aug 13:21:28 13:24:12 15° 59° (ENE) 13:27:09 435.225
50 SAT 05 Aug 13:27:37 13:30:38 20° 293° (WNW) 13:33:32 437.505
UKube-1 05 Aug 13:38:43 13:41:26 16° 296° (WNW) 13:43:59 .
ESTCUBE 1 05 Aug 13:40:20 13:44:19 30° 291° (WNW) 13:48:12 437.505/2401.250
Cosmos 2504 05 Aug 13:51:45 14:00:09 63° 77° (ENE) 14:08:42 435.465 / 435.565
BEESAT 05 Aug 13:56:39 13:58:18 12° 87° (E) 14:00:13 436.000
CUBEBUG 1 05 Aug 14:08:09 14:11:16 19° 294° (WNW) 14:14:16 437.445
AISAT 05 Aug 14:10:19 14:12:07 12° 299° (WNW) 14:13:43 437.250
YUBILEINY 05 Aug 14:16:18 14:21:09 15° 284° (WNW) 14:25:25 435.215
SWISSCUBE 05 Aug 14:16:27 14:20:00 21° 92° (E) 14:23:39 437.505
TISAT 1 05 Aug 14:16:59 14:21:12 71° 285° (WNW) 14:25:24 437.305
JAS-2 05 Aug 14:18:43 14:23:39 24° 58° (ENE) 14:29:13 435.910
SPROUT 05 Aug 14:24:39 14:28:37 36° 290° (WNW) 14:32:33 437.525
CUSAT 1 05 Aug 14:35:38 14:39:47 33° 76° (ENE) 14:45:08 437.405
ITUPSAT 1 05 Aug 14:39:22 14:43:37 32° 96° (E) 14:47:53 437.325
DANDE 05 Aug 14:50:30 14:54:03 27° 76° (ENE) 14:58:38 436.750
ITAMSAT 1 05 Aug 14:52:11 14:57:24 78° 73° (ENE) 15:02:38 435.822/435.867
Cosmos 2491 05 Aug 14:53:38 15:00:06 21° 301° (WNW) 15:06:11 435.465 / 435.565
AO-7 05 Aug 14:57:49 15:04:53 33° 57° (ENE) 15:12:07 29.400- 29.500
Gurwin Techsat 1B 05 Aug 14:58:13 15:03:33 85° 256° (WSW) 15:08:55 435.225
Oscar 19 05 Aug 15:01:03 15:05:18 25° 267° (W) 15:09:29 437.125/150
GONETS M04 05 Aug 15:06:37 15:07:43 10° 48° (NE) 15:09:29
KKS-1 05 Aug 15:08:46 15:09:04 10° 86° (E) 15:09:39 437.445
HORYU 2 05 Aug 15:13:25 15:16:16 17° 63° (ENE) 15:19:14 437.375
BEESAT 05 Aug 15:32:01 15:36:49 77° 285° (WNW) 15:41:34 436.000
PCSat 05 Aug 15:39:20 15:40:43 11° 29° (NNE) 15:42:19 145.827
Cosmos 2504 05 Aug 15:44:43 15:51:55 31° 276° (W) 15:58:58 435.465 / 435.565
SWISSCUBE 05 Aug 15:53:33 15:58:06 44° 290° (WNW) 16:02:34 437.505
SO-50 05 Aug 15:54:28 15:57:35 17° 33° (NNE) 16:00:49 436.795
JAS-2 05 Aug 16:01:39 16:07:59 72° 259° (WSW) 16:15:12 435.910
STARS 05 Aug 16:03:13 16:06:49 24° 94° (E) 16:10:28 437.465
ITUPSAT 1 05 Aug 16:17:17 16:21:28 30° 293° (WNW) 16:25:32 437.325
VERMONT LUNAR 05 Aug 16:17:45 16:18:58 12° 151° (SSE) 16:20:16 437.305
CUSAT 1 05 Aug 16:18:10 16:22:18 29° 264° (W) 16:27:22 437.405
DANDE 05 Aug 16:33:23 16:37:07 29° 263° (W) 16:41:48 436.750
MOZHAYETS 4 05 Aug 16:33:44 16:34:57 11° 86° (E) 16:36:27
ITAMSAT 1 05 Aug 16:34:55 16:37:36 14° 273° (W) 16:40:00 435.822/435.867
KKS-1 05 Aug 16:41:52 16:46:22 80° 285° (WNW) 16:50:50 437.445
Gurwin Techsat 1B 05 Aug 16:43:09 16:44:28 11° 275° (W) 16:45:24 435.225
HORYU 2 05 Aug 16:48:09 16:52:31 53° 260° (W) 16:56:55 437.375
AO-7 05 Aug 16:48:56 16:57:15 65° 256° (WSW) 17:05:34 29.400- 29.500
GONETS M04 05 Aug 16:58:53 17:07:20 52° 74° (ENE) 17:15:51
CUTE-I 05 Aug 17:00:27 17:01:15 10° 56° (NE) 17:02:21 437.470
Cosmos 2499 05 Aug 17:13:12 17:18:40 18° 57° (ENE) 17:24:38 435.465 / 435.565
PCSat 05 Aug 17:20:28 17:25:40 45° 52° (NE) 17:30:52 145.827
SO-50 05 Aug 17:34:00 17:39:01 78° 56° (NE) 17:43:52 436.795
STARS 05 Aug 17:39:19 17:43:19 33° 291° (WNW) 17:47:17 437.465
Cubesat XI-IV 05 Aug 17:42:08 17:46:20 25° 64° (ENE) 17:50:39 437.490
VERMONT LUNAR 05 Aug 17:52:14 17:55:08 35° 167° (SSE) 17:58:06 437.305
JAS-2 05 Aug 17:52:27 17:54:46 11° 282° (WNW) 17:56:38 435.910
PHONESAT 2.4 05 Aug 17:53:23 17:53:40 10° 148° (SSE) 17:54:03 2401.200-2431.200
MOZHAYETS 4 05 Aug 18:08:12 18:12:51 77° 285° (WNW) 18:17:26
CUTE-I 05 Aug 18:35:09 18:40:28 68° 73° (ENE) 18:45:48 437.470
CUBESAT XI-V 05 Aug 18:39:49 18:43:12 21° 91° (E) 18:46:41 437.345
AO-7 05 Aug 18:49:02 18:51:57 11° 278° (W) 18:54:08 29.400- 29.500
GONETS M04 05 Aug 18:56:11 19:03:57 36° 274° (W) 19:11:33
HO-68 05 Aug 19:02:24 19:06:08 16° 51° (NE) 19:10:12 435.675
PCSat 05 Aug 19:04:17 19:08:54 28° 250° (WSW) 19:13:25 145.827
Cosmos 2499 05 Aug 19:04:42 19:13:34 78° 80° (E) 19:22:26 435.465 / 435.565
SO-50 05 Aug 19:16:18 19:18:58 14° 251° (WSW) 19:21:23 436.795
Cubesat XI-IV 05 Aug 19:20:59 19:26:10 48° 261° (W) 19:31:22 437.490
PHONESAT 2.4 05 Aug 19:27:51 19:31:00 32° 163° (SSE) 19:34:12 2401.200-2431.200
VERMONT LUNAR 05 Aug 19:28:31 19:31:36 49° 183° (S) 19:34:41 437.305
STRAND 1 05 Aug 19:32:29 19:36:19 22° 92° (E) 19:40:16 437.568
GOMX 1 05 Aug 19:52:38 19:56:06 26° 69° (ENE) 19:59:37 467.674
BRITE-PL 05 Aug 20:06:57 20:11:11 66° 75° (ENE) 20:15:18 437.365/2234.400
ISS 05 Aug 20:13:30 20:16:42 57° 143° (SE) 20:19:54 145.825
CUBESAT XI-V 05 Aug 20:16:31 20:20:52 42° 289° (WNW) 20:25:09 437.345
CUTE-I 05 Aug 20:17:43 20:21:08 16° 271° (W) 20:24:20 437.470
COMPASS 1 05 Aug 20:22:30 20:25:19 18° 66° (ENE) 20:28:17 437.405
CINEMA 3 05 Aug 20:26:42 20:29:25 17° 65° (ENE) 20:32:19 145.822/145.860
SEEDS 05 Aug 20:44:48 20:48:43 38° 71° (ENE) 20:52:43 437.485
HO-68 05 Aug 20:45:42 20:52:46 71° 70° (ENE) 20:59:56 435.675
PRISM 05 Aug 20:46:08 20:50:16 85° 285° (WNW) 20:54:21 437.425
RS-15 05 Aug 20:47:34 20:57:32 45° 111° (ESE) 21:07:59 29.354- 29.394
DOVE 4 05 Aug 20:53:14 20:57:22 73° 74° (ENE) 21:01:33 437.250
CUTE 1.7 + AOD 2 05 Aug 20:55:42 20:59:55 62° 74° (ENE) 21:04:11 437.475
AAUSAT CUBESAT 2 05 Aug 20:58:13 21:02:03 35° 71° (ENE) 21:05:56 437.432
Cosmos 2499 05 Aug 20:59:09 21:05:58 25° 278° (W) 21:12:27 435.465 / 435.565
ZACube-1 05 Aug 20:59:26 21:00:45 11° 61° (ENE) 21:02:15 437.345
CANX-2 05 Aug 21:04:50 21:09:08 87° 76° (ENE) 21:13:28 2200.000
PHONESAT 2.4 05 Aug 21:05:15 21:08:41 53° 179° (S) 21:12:08 2401.200-2431.200
VERMONT LUNAR 05 Aug 21:05:16 21:08:00 26° 199° (SSW) 21:10:41 437.305
STRAND 1 05 Aug 21:10:55 21:15:49 48° 290° (WNW) 21:20:41 437.568
FUNcube-1 05 Aug 21:17:12 21:19:53 17° 64° (ENE) 21:22:45 145.935
Oscar 11 05 Aug 21:19:51 21:23:34 29° 69° (ENE) 21:27:23 145.826/435.025
GOMX 1 05 Aug 21:30:44 21:34:15 26° 266° (W) 21:37:44 467.674
UWE-3 05 Aug 21:32:13 21:35:57 31° 69° (ENE) 21:39:49 435.000/436.395/437.385
DELFI C3 05 Aug 21:43:21 21:46:59 33° 71° (ENE) 21:50:41 145.870
BRITE-PL 05 Aug 21:49:24 21:50:17 10° 272° (W) 21:50:54 437.365/2234.400
ISS 05 Aug 21:50:23 21:53:18 29° 342° (NNW) 21:56:12 145.825
BEESAT 3 05 Aug 21:52:13 21:53:36 12° 110° (ESE) 21:55:12 437.485
COMPASS 1 05 Aug 21:56:39 22:00:41 43° 262° (W) 22:04:46 437.405
CUBEBUG 2 05 Aug 21:58:08 22:02:20 75° 77° (ENE) 22:06:43 437.445
DX 1 05 Aug 21:59:27 22:01:53 15° 63° (ENE) 22:04:29 434.975-435.025
CINEMA 3 05 Aug 22:02:18 22:06:18 44° 262° (W) 22:10:26 145.822/145.860
SEEDS 05 Aug 22:21:29 22:24:40 20° 268° (W) 22:27:47 437.485
ZACube-1 05 Aug 22:32:16 22:36:30 78° 258° (WSW) 22:40:52 437.345
VELOX 1 05 Aug 22:32:43 22:35:51 20° 65° (ENE) 22:39:06 145.980
CUTE 1.7 + AOD 2 05 Aug 22:34:23 22:36:20 12° 273° (W) 22:38:03 437.475
AAUSAT CUBESAT 2 05 Aug 22:34:32 22:37:46 21° 268° (W) 22:40:56 437.432
UNISAT 6 05 Aug 22:34:51 22:35:15 10° 85° (E) 22:35:59 437.425
HO-68 05 Aug 22:35:43 22:41:14 23° 270° (W) 22:46:32 435.675
HUMSAT D 05 Aug 22:36:11 22:40:11 47° 73° (ENE) 22:44:17 437.325/437.525
50 SAT 05 Aug 22:37:46 22:40:49 23° 68° (ENE) 22:43:58 437.505
PHONESAT 2.4 05 Aug 22:43:09 22:46:23 34° 196° (SSW) 22:49:36 2401.200-2431.200
FUNcube-1 05 Aug 22:51:45 22:55:51 48° 261° (W) 23:00:04 145.935
BEESAT 2 05 Aug 22:55:03 22:58:54 41° 118° (ESE) 23:02:49 435.950
Oscar 11 05 Aug 22:56:00 22:59:44 27° 266° (W) 23:03:27 145.826/435.025
M-CUBED/EXP-1 PRIME 05 Aug 22:57:04 23:01:39 44° 103° (ESE) 23:06:02 437.505
UKube-1 05 Aug 22:57:09 23:01:20 53° 72° (ENE) 23:05:34 .
RS-15 05 Aug 22:58:55 23:09:43 59° 315° (NW) 23:20:58 29.354- 29.394
Cosmos 2491 05 Aug 23:02:09 23:10:27 47° 73° (ENE) 23:18:48 435.465 / 435.565
ESTCUBE 1 05 Aug 23:04:21 23:08:15 30° 68° (ENE) 23:12:13 437.505/2401.250
AIST 1 05 Aug 23:05:41 23:09:54 57° 79° (E) 23:14:05
UWE-3 05 Aug 23:09:01 23:12:32 24° 267° (W) 23:16:04 435.000/436.395/437.385
TIGRISAT 05 Aug 23:13:04 23:16:57 26° 93° (E) 23:20:54 435.000
ANTELSAT 05 Aug 23:17:02 23:21:08 29° 95° (E) 23:25:16 437.575/2403.000
DELFI C3 05 Aug 23:18:59 23:22:08 21° 267° (W) 23:25:13 145.870
POPSAT HIP 1 05 Aug 23:20:20 23:20:51 10° 87° (E) 23:21:39 437.405
AUBIESAT-1 05 Aug 23:21:12 23:25:56 66° 106° (ESE) 23:30:26 437.475
YUBILEINY 05 Aug 23:24:32 23:31:10 26° 82° (E) 23:38:08 435.215
AIST 2 05 Aug 23:26:08 23:29:16 21° 113° (ESE) 23:32:30 435.215
BEESAT 3 05 Aug 23:26:59 23:31:03 70° 305° (NW) 23:35:09 437.485
ISS 05 Aug 23:28:01 23:30:26 19° 1° (N) 23:32:52 145.825
QB50P2 05 Aug 23:28:01 23:30:05 14° 89° (E) 23:32:22 145.880/145.840
CUBEBUG 1 05 Aug 23:28:11 23:32:15 42° 72° (ENE) 23:36:22 437.445
AISAT 05 Aug 23:30:16 23:34:40 80° 75° (ENE) 23:39:05 437.250
DX 1 05 Aug 23:33:27 23:37:43 57° 259° (W) 23:42:01 434.975-435.025
TISAT 1 05 Aug 23:38:23 23:38:52 10° 61° (ENE) 23:39:34 437.305
